Location: Banksville Park
(38.5557°N, 75.1182°W)
Time: 21:53:16
(UTC+00:00)

BREEZE-M DEB (TANK) - Pass Details

Date: 19 September 2020
Orbit: 315 x 16294 km, 49.4° (Epoch: 30 October)

Event Time Altitude Azimuth Distance (km) Brightness Sun altitude
Rises 01:33:05 0° 303° (WNW) 2,653 7.0 -29.0°
Reaches altitude 10° 01:34:26 10° 302° (WNW) 2,050 6.2 -29.2°
Maximum altitude 01:38:35 81° 216° (SW) 1,190 3.8 -29.9°
Enters shadow 01:39:50 64° 145° (SE) 1,491 4.1 -30.1°
